CAPE
0 0 0 0 0 0 0 0 0 0 0 0 0 0 0 0 0 0 0 0 0 0 0 17 23 30 2 0 0 0 0 0 0 0 0 0 0 0 0 0 16 0 0 0
0 0 0 0 0 0 0 0 0 0 0 0 0 0 0 0 0 0 0 0 0 0 0 0 0 0 0 0 0 0 0 0 0 0 0 0 0 40 98 79 70 21 53 7
0 0 0 0 0 0 0 0 0 0 0 0 0 0 0 0 0 0 0 0 0 0 0 0 0 0 0 0 0 0 0 0 0 0 0 0 0 0 48 80 175 170 225 131
0 0 0 0 0 0 0 0 0 0 0 0 0 0 0 0 0 0 0 0 0 0 0 0 0 0 0 0 0 0 0 0 0 0 0 0 0 0 0 33 35 106 219 280
0 0 0 0 0 0 0 0 0 0 0 0 0 0 0 0 0 0 0 0 0 0 0 0 0 0 0 0 0 0 0 0 0 0 0 0 5 4 0 5 23 9 8 42
0 0 0 0 0 0 0 0 0 0 0 0 0 0 0 0 0 0 0 0 0 0 0 0 0 0 0 0 0 0 0 0 0 0 0 4 0 0 41 48 18 0 0 3
0 0 0 0 0 0 0 0 0 0 0 0 0 0 0 0 0 0 0 0 0 0 0 0 0 0 0 0 0 0 0 0 0 0 0 0 0 7 8 0 2 6 1 4
0 0 0 0 0 0 0 0 0 0 0 0 0 0 0 0 0 0 0 0 0 0 0 0 0 0 0 0 0 0 0 0 0 0 0 0 0 0 1 7 13 0 0 5
0 0 0 0 0 0 0 0 0 0 0 0 0 0 0 0 0 0 0 0 0 0 0 0 0 0 0 0 0 0 0 0 0 0 0 0 0 0 0 0 0 0 0 0
0 0 0 0 0 0 0 0 0 0 0 0 0 0 0 0 0 0 0 0 0 0 0 0 0 0 0 0 0 0 0 0 0 0 0 0 0 0 0 0 0 0 0 0
0 0 0 0 0 0 0 0 0 0 0 0 0 0 0 0 0 0 0 0 0 0 0 0 0 0 0 0 0 0 0 0 0 0 0 0 0 0 0 0 0 0 0 0
0 0 0 0 0 0 0 0 0 0 0 0 0 0 0 0 0 0 0 0 0 0 0 0 0 0 0 0 0 0 0 0 0 0 0 0 0 0 0 0 0 0 0 1
0 0 0 0 0 0 0 0 0 0 0 0 0 0 0 0 0 0 0 0 0 0 0 0 0 0 0 0 0 0 0 0 0 0 0 0 0 0 0 0 0 1 0 0
0 0 0 0 0 0 0 0 0 0 0 0 0 0 0 0 0 0 0 0 0 0 0 0 0 0 0 0 0 0 0 0 0 0 0 0 0 0 0 0 0 0 0 0
0 0 0 0 0 0 0 0 0 0 0 0 0 0 0 0 0 0 0 0 0 0 0 0 0 0 0 0 0 0 0 0 0 0 0 0 0 0 0 0 0 0 0 0
0 0 0 0 0 0 0 0 0 0 0 0 0 0 0 0 0 0 0 0 0 0 0 0 0 0 0 0 0 0 0 0 0 0 0 0 0 0 0 0 0 0 0 0
0 0 0 0 0 0 0 0 0 0 0 0 0 0 0 0 0 0 0 0 0 0 0 0 0 0 0 0 0 0 0 0 0 0 0 0 0 0 0 0 0 0 0 0
0 0 0 0 0 0 0 0 0 0 0 0 0 0 0 0 0 0 0 0 0 0 0 0 0 0 0 0 0 0 0 0 0 0 0 0 1 1 1 1 1 0 0 0
0 0 0 0 0 0 0 0 0 0 0 0 0 0 0 0 0 0 0 0 0 0 0 0 0 0 0 0 0 0 0 0 1 0 0 1 1 2 1 1 1 0 1 1
0 0 0 0 0 0 0 0 0 0 0 0 0 0 0 0 0 0 0 0 0 0 0 0 0 0 0 0 0 0 2 1 1 0 1 1 1 1 1 6 9 9 5 6
0 0 0 0 0 0 0 0 0 0 0 0 0 0 0 0 0 0 0 0 0 0 0 0 0 0 0 0 0 1 1 1 0 0 1 1 1 1 6 14 8 10 6 5
0 0 0 0 0 0 0 0 0 0 0 0 0 0 0 0 0 0 0 0 0 0 0 0 0 0 0 0 0 1 1 0 0 1 1 1 0 5 4 3 1 1 3 0
1 0 0 0 0 0 0 0 0 0 0 0 0 0 0 0 0 0 0 0 0 0 0 0 0 0 0 0 0 1 0 0 1 1 1 0 0 3 0 1 0 0 1 2
0 0 0 0 0 0 0 0 0 0 0 0 0 0 0 0 0 0 0 0 0 0 0 0 0 0 0 0 0 0 0 1 2 1 1 0 4 0 0 1 0 1 1 0
0 0 0 0 0 0 0 0 0 0 0 0 0 0 0 0 0 0 0 0 0 0 0 0 0 0 0 0 0 0 1 3 2 2 1 2 3 1 0 0 0 0 0 0
0 0 0 0 0 0 0 0 0 0 0 0 0 0 0 0 0 0 0 0 0 0 0 0 0 0 0 0 0 1 3 1 2 2 2 1 1 1 0 0 0 0 0 1
CIN
0 0 0 0 0 0 0 0 0 0 0 0 0 0 0 0 0 0 0 0 0 0 0 -591 -528 -500 -430 0 0 0 0 0 0 0 0 0 0 0 0 0 -279 0 0 0
0 0 0 0 0 0 0 0 0 0 0 0 0 0 0 0 0 0 0 0 0 0 0 0 0 0 0 0 0 0 0 0 0 0 0 0 0 -277 -243 -292 -283 -285 -253 -202
0 0 0 0 0 0 0 0 0 0 0 0 0 0 0 0 0 0 0 0 0 0 0 0 0 0 0 0 0 0 0 0 0 0 0 0 0 -29 -369 -361 -244 -209 -145 -115
0 0 0 0 0 0 0 0 0 0 0 0 0 0 0 0 0 0 0 0 0 0 0 0 0 0 0 0 0 0 0 0 0 0 0 0 0 0 -26 -286 -299 -234 -116 -119
0 0 0 0 0 0 0 0 0 0 0 0 0 0 0 0 0 0 0 0 0 0 0 0 0 0 0 0 0 0 0 0 0 0 0 0 -209 -214 -7 -243 -175 -283 -153 -225
0 0 0 0 0 0 0 0 0 0 0 0 0 0 0 0 0 0 0 0 0 0 0 0 0 0 0 0 0 0 0 0 0 0 0 -85 -12 -9 -172 -159 -177 0 0 -119
0 0 0 0 0 0 0 0 0 0 0 0 0 0 0 0 0 0 0 0 0 0 0 0 0 0 0 0 0 0 0 0 0 0 0 0 -19 -134 -204 -44 -121 -164 -59 -153
0 0 0 0 0 0 0 0 0 0 0 0 0 0 0 0 0 0 0 0 0 0 0 0 0 0 0 0 0 0 0 0 0 0 0 0 0 0 -106 -226 -219 0 -81 -190
0 0 0 0 0 0 0 0 0 0 0 0 0 0 0 0 0 0 0 0 0 0 0 0 0 0 0 0 0 0 0 0 0 0 0 0 0 0 0 0 0 0 0 0
0 0 0 0 0 0 0 0 0 0 0 0 0 0 0 0 0 0 0 0 0 0 0 0 0 0 0 0 0 0 0 0 0 0 0 0 0 0 0 0 0 0 0 0
0 0 0 0 0 0 0 0 0 0 0 0 0 0 0 0 0 0 0 0 0 0 0 0 0 0 0 0 0 0 0 0 0 0 0 0 0 0 0 0 0 0 0 0
0 0 0 0 0 0 0 0 0 0 0 0 0 0 0 0 0 0 0 0 0 0 0 0 0 0 0 0 0 0 0 0 0 0 0 0 0 0 0 0 0 0 0 -15
0 0 0 0 0 0 0 0 0 0 0 0 0 0 0 0 0 0 0 0 0 0 0 0 0 0 0 0 0 0 0 0 0 0 0 0 0 0 0 0 0 -19 -7 -3
0 0 0 0 0 0 0 0 0 0 0 0 0 0 0 0 0 0 0 0 0 0 0 0 0 0 0 0 0 0 0 0 0 0 0 0 0 0 0 0 0 0 0 -1
0 0 0 0 0 0 0 0 0 0 0 0 0 0 0 0 0 0 0 0 0 0 0 0 0 0 0 0 0 0 0 0 0 0 0 0 0 0 0 0 0 0 0 0
0 0 0 0 0 0 0 0 0 0 0 0 0 0 0 0 0 0 0 0 0 0 0 0 0 0 0 0 0 0 0 0 0 0 0 0 0 0 0 0 0 -1 0 0
0 0 0 0 0 0 0 0 0 0 0 0 0 0 0 0 0 0 0 0 0 0 0 0 0 0 0 0 0 0 0 0 0 0 0 0 0 0 0 0 0 0 0 0
0 0 0 0 0 0 0 0 0 0 0 0 0 0 0 0 0 0 0 0 0 0 0 0 0 0 0 0 0 0 0 0 0 0 0 0 0 0 0 0 0 0 -1 0
0 0 0 0 0 0 0 0 0 0 0 0 0 0 0 0 0 0 0 0 0 0 0 0 0 0 0 0 0 0 -1 -1 -1 0 0 0 0 0 0 0 0 0 0 0
0 0 0 0 0 0 0 0 0 0 0 0 0 0 0 0 0 0 0 0 0 0 0 0 0 0 0 0 0 0 0 -1 0 0 0 0 0 0 0 0 0 0 0 0
0 0 0 0 0 0 0 0 0 0 0 0 0 0 0 0 0 0 0 0 0 0 0 0 0 0 0 0 0 0 0 0 -1 0 0 0 0 0 -1 0 0 0 0 0
0 0 0 0 0 0 0 0 0 0 0 0 0 0 0 0 0 0 0 0 0 0 0 0 0 0 0 0 0 0 0 0 -1 0 0 0 0 -1 0 0 0 0 0 0
-19 0 0 0 0 0 0 0 0 0 0 0 0 0 0 0 0 0 0 0 0 0 0 0 0 0 0 0 0 0 0 -1 0 0 0 0 0 0 0 0 0 0 0 0
0 0 0 0 0 0 0 0 0 0 0 0 0 0 0 0 0 0 0 0 0 0 0 0 0 0 0 0 0 0 0 0 0 0 0 0 0 0 0 0 0 0 0 0
0 0 0 0 0 0 0 0 0 0 0 0 0 0 0 0 0 0 0 0 0 0 0 0 0 0 0 0 0 0 0 0 0 0 0 -1 -1 0 0 0 0 0 0 0
0 0 0 0 0 0 0 0 0 0 0 0 0 0 0 0 0 0 0 0 0 0 0 0 0 0 0 0 0 -1 -1 0 0 0 0 -1 -1 0 0 0 0 0 0 0
Wind_Speed
4 7 1 5 3 4 8 6 3 3 6 4 4 7 8 7 11 11 10 11 10 11 8 11 10 9 7 6 8 9 8 6 4 1 2 3 2 3 3 3 6 6 7 9
8 1 4 7 9 10 9 8 7 4 10 6 6 6 7 3 4 11 13 10 9 7 7 7 8 8 8 8 8 6 5 5 2 2 1 1 2 2 2 1 0 2 1 3
6 4 7 10 8 8 4 6 3 3 5 5 4 7 5 3 7 6 7 10 8 11 9 7 7 8 7 8 6 4 5 6 5 6 4 2 1 1 0 2 2 3 2 3
4 2 10 8 6 4 3 3 2 5 5 2 3 5 5 5 7 7 8 7 8 7 5 6 7 3 2 5 6 6 8 8 6 5 3 6 5 4 4 3 4 5 6 6
5 3 5 6 1 1 5 3 3 3 3 2 5 3 8 6 3 1 1 3 5 5 6 3 6 8 5 6 7 8 5 3 4 4 4 5 5 4 3 3 6 6 6 6
3 0 4 3 3 7 2 5 7 6 3 3 4 5 6 3 2 4 5 6 5 6 7 8 5 3 2 2 4 5 5 4 6 5 6 7 7 7 5 5 5 5 4 3
7 5 2 3 6 8 12 8 6 7 7 5 4 7 5 5 5 8 7 5 7 6 6 5 6 5 2 3 3 2 4 5 5 6 7 7 6 6 6 8 5 6 4 3
4 6 1 1 4 1 2 6 6 1 1 6 6 3 5 6 4 5 6 8 6 6 1 3 6 7 5 6 7 8 7 6 6 6 6 5 4 2 3 4 4 5 4 4
3 2 2 4 2 6 4 3 5 5 2 3 2 2 5 2 3 3 7 7 4 2 6 8 7 7 8 7 5 4 6 6 6 4 5 6 6 7 6 8 6 3 4 4
1 1 2 2 2 3 5 3 4 4 0 3 4 1 4 5 5 6 6 6 4 6 7 5 5 6 4 5 4 6 6 5 5 6 6 5 7 6 5 5 6 6 6 6
3 4 6 2 2 4 2 2 5 4 5 6 1 7 7 4 5 7 4 3 1 4 3 3 3 3 4 3 3 3 5 6 7 7 7 7 7 7 6 6 6 7 7 8
2 4 2 7 6 4 4 5 6 7 4 1 5 8 5 8 6 7 4 3 5 5 0 2 3 3 3 2 4 5 5 6 6 6 8 10 7 7 7 7 7 8 7 7
3 2 4 10 8 7 3 3 4 4 4 6 7 8 2 5 7 3 3 3 2 3 3 5 6 4 3 5 6 6 5 5 8 10 9 9 10 8 9 9 9 9 9 9
7 3 7 7 6 2 6 6 7 6 5 4 7 5 4 6 4 4 4 2 2 5 6 5 3 3 5 6 5 5 7 8 9 9 9 10 11 11 11 11 11 10 9 9
5 3 3 5 6 5 6 9 9 6 7 7 5 6 1 2 2 4 3 3 6 5 6 4 3 5 5 4 5 5 9 10 10 11 11 12 12 12 12 11 11 11 10 9
2 2 1 4 7 6 7 10 8 6 3 5 6 3 3 3 3 3 1 3 5 5 4 4 6 6 5 5 6 6 10 10 11 11 12 12 13 13 13 12 12 11 11 11
6 4 3 5 5 6 8 6 3 3 1 5 3 4 3 2 5 3 6 5 5 3 2 5 5 5 5 6 6 7 8 10 11 12 13 13 13 13 13 13 12 11 11 10
6 5 4 4 4 2 9 2 3 7 3 4 6 4 2 0 3 3 3 3 4 1 3 5 5 6 6 6 7 7 7 10 12 12 13 14 14 14 13 12 11 11 9 10
6 6 1 2 2 7 7 2 4 5 2 1 6 1 2 3 3 3 3 3 3 2 2 4 5 4 5 6 7 7 10 11 12 13 14 14 14 14 14 12 11 10 9 8
5 5 6 3 3 6 8 2 4 4 3 4 5 1 0 2 5 5 4 2 3 2 3 3 5 5 6 7 7 10 11 11 12 14 15 15 15 14 14 12 10 7 7 7
3 1 6 3 4 8 8 5 3 5 10 6 5 3 3 1 5 4 0 1 3 2 5 4 6 6 7 7 9 10 11 11 13 15 14 15 15 15 13 10 9 8 6 6
9 8 5 3 3 8 8 3 8 9 4 6 5 6 4 5 2 1 4 2 5 6 5 6 6 7 7 8 8 11 11 13 13 14 14 15 15 9 10 10 8 8 7 6
2 9 8 10 10 7 8 7 6 8 6 5 7 4 7 5 1 2 2 4 4 4 4 4 5 9 8 7 7 10 12 12 13 14 14 14 16 10 10 9 9 7 6 5
3 4 3 5 3 5 7 4 6 6 6 6 6 7 6 5 3 4 3 2 2 4 5 4 6 8 8 9 10 10 11 12 12 13 14 13 13 12 11 7 6 6 7 7
6 2 3 3 5 3 5 7 9 9 8 10 7 7 6 7 4 4 3 2 2 3 4 4 6 6 7 9 9 10 11 11 11 12 11 12 10 10 9 8 7 5 3 2
3 6 4 7 8 6 6 5 7 9 9 9 8 5 5 7 6 5 4 2 1 3 3 5 6 6 7 9 10 10 10 11 11 11 9 9 9 8 8 7 8 8 5 7
Wind_Direction
13 59 283 237 220 65 91 83 83 262 341 77 185 162 191 180 124 141 135 133 133 137 160 141 149 151 150 154 153 161 155 174 143 101 106 79 34 1 43 16 15 23 7 1
25 119 262 55 62 73 67 51 355 306 350 50 151 228 222 86 152 153 142 137 142 135 151 159 163 166 186 177 186 174 144 138 77 88 281 285 187 177 214 268 334 348 209 326
130 220 66 84 45 51 49 87 352 265 329 347 55 340 179 48 115 111 128 144 152 159 165 173 180 191 190 185 189 149 154 164 182 178 167 178 315 29 152 238 215 258 247 158
125 288 95 71 74 111 25 253 343 324 49 273 89 260 308 172 111 144 155 152 159 164 158 180 205 175 154 222 147 171 190 194 210 197 194 184 191 215 222 203 208 230 228 218
281 121 86 77 68 340 229 327 309 258 263 37 358 75 297 25 137 200 43 109 92 123 163 54 61 122 112 130 167 195 200 231 238 249 246 222 216 233 235 231 234 243 229 226
241 294 53 149 107 79 358 8 354 31 87 41 259 135 331 318 263 45 85 101 148 66 66 60 63 132 69 158 139 141 164 194 233 260 263 247 248 246 232 243 246 255 266 272
12 356 358 52 32 7 40 44 346 3 13 225 345 59 219 263 130 134 141 135 86 79 57 22 356 346 218 161 58 29 23 29 13 31 21 12 359 329 297 290 284 283 256 229
118 336 7 10 131 165 332 129 145 258 297 279 345 118 237 220 137 119 116 110 90 70 9 321 334 2 50 37 43 48 35 24 19 24 2 351 345 299 275 255 255 249 244 241
88 309 35 97 128 112 323 42 184 113 349 40 253 22 352 213 153 88 83 95 67 17 347 352 28 62 84 74 58 46 28 13 10 336 313 314 306 301 285 283 268 251 247 244
178 25 325 291 63 5 134 182 41 12 311 306 297 204 225 231 238 86 90 89 48 15 27 47 67 104 80 64 51 32 12 335 293 297 301 294 295 302 307 319 314 307 299 290
63 107 285 35 119 226 17 20 62 111 137 167 281 280 217 220 118 119 119 204 190 79 62 43 64 99 79 56 35 326 305 301 318 329 325 324 306 296 299 294 285 277 266 263
15 138 267 240 271 206 173 174 129 116 262 179 152 266 47 124 130 126 157 52 60 94 75 326 74 81 56 4 301 306 332 353 343 319 308 301 292 291 288 275 279 276 266 268
172 10 14 345 356 357 17 261 164 115 73 207 140 260 60 73 71 71 71 42 169 221 346 50 75 50 350 313 321 359 358 319 315 314 306 296 294 289 286 291 280 277 276 276
89 119 155 190 219 225 294 299 283 136 113 223 217 244 3 32 39 347 345 54 291 357 47 69 57 343 327 329 1 338 320 313 310 297 293 291 296 300 299 294 288 280 276 275
103 182 213 247 254 260 265 272 288 215 209 159 263 137 100 50 350 336 25 12 4 31 44 50 356 326 313 0 332 323 321 315 302 302 303 304 304 301 295 292 288 282 277 272
32 257 251 286 288 294 294 287 278 280 115 131 135 139 176 219 249 75 324 7 38 37 49 6 336 326 350 326 312 317 323 311 307 304 305 305 302 299 293 290 287 281 276 268
150 149 87 269 305 337 324 270 226 124 65 130 132 164 208 350 18 43 6 40 29 72 358 323 323 321 302 312 303 299 305 306 312 310 309 309 306 301 296 289 284 280 275 270
141 123 130 246 6 334 244 249 138 130 128 117 101 117 122 292 320 77 39 80 91 259 326 346 307 291 295 301 298 292 302 317 318 313 312 310 306 300 296 289 281 275 271 264
149 125 115 135 197 283 295 218 170 156 289 69 120 79 33 3 61 5 10 68 150 14 320 274 291 291 294 306 296 297 322 321 318 317 314 310 306 302 299 291 285 276 271 266
77 95 125 137 173 234 239 267 114 94 297 165 126 142 70 84 23 267 314 100 32 284 294 325 324 303 320 301 305 329 323 321 320 317 311 309 307 301 296 298 294 286 274 272
107 39 177 151 227 283 242 155 114 86 239 193 173 153 139 129 194 228 18 106 314 340 10 358 334 325 293 309 328 325 323 321 318 313 312 313 310 307 308 313 319 301 287 276
165 154 200 130 196 275 167 128 159 210 198 181 153 161 132 135 136 19 124 3 20 18 358 340 344 318 332 332 329 325 325 322 320 315 319 317 315 321 327 322 319 315 303 282
148 181 183 169 210 227 194 186 195 161 162 166 148 127 131 131 146 93 169 38 29 18 327 334 328 326 335 328 332 324 324 322 322 319 321 320 319 329 327 327 325 327 324 304
305 159 168 68 271 207 206 230 152 152 140 154 127 137 136 142 118 136 55 83 23 336 335 326 330 331 326 338 337 328 323 323 323 321 323 321 325 332 331 329 325 336 350 341
215 47 152 246 263 118 322 199 154 140 129 124 141 150 153 123 118 126 131 128 345 326 316 326 322 311 314 332 332 329 327 328 325 322 323 325 328 328 327 329 326 335 348 309
176 202 157 229 221 178 218 190 151 137 146 152 144 137 99 120 137 130 151 166 288 324 317 330 318 310 322 331 332 336 334 332 326 324 327 327 326 326 328 325 326 331 311 360